Location: Klein M�hlingen
(51.9472°N, 11.7453°E)
Time: 14:51:54
(UTC+00:00)

Cosmos 2322 Rocket - Pass Details

Date: 09 April 2020
Orbit: 834 x 849 km, 71.0° (Epoch: 02 June)

Event Time Altitude Azimuth Distance (km) Brightness Sun altitude
Rises 21:33:46 0° 330° (NNW) 3,408 6.7 -26.3°
Reaches altitude 10° 21:36:19 10° 336° (NNW) 2,468 5.6 -26.5°
Maximum altitude 21:41:48 50° 51° (NE) 1,067 2.7 -26.8°
Enters shadow 21:42:26 47° 73° (ENE) 1,097 2.6 -26.9°
